Regional Weather Roundup
Issued by NWS Jackson, KY

Home | Current Version | Previous Version | Text Only | Print | Product List | Glossary Off
Versions: 1 2 3 4 5 6 7 8 9 10 11 12 13 14 15 16 17 18 19 20 21 22 23 24 25 26 27 28 29 30 31 32 33 34 35 36 37 38 39 40 41 42 43 44 45 46 47 48 49 50

000
ASUS43 KJKL 280519
RWRJKL

EAST KENTUCKY HOURLY WEATHER ROUNDUP
NATIONAL WEATHER SERVICE JACKSON KY
1200 AM EST SUN DEC 28 2014

NOTE: "FAIR" INDICATES FEW OR NO CLOUDS BELOW 12,000 FEET WITH
NO SIGNIFICANT WEATHER AND/OR OBSTRUCTIONS TO VISIBILITY.

* THESE REPORTS ARE NOT UNDER NWS QUALITY CONTROL AND MAY NOT
  REPORT WEATHER SUCH AS PRECIPITATION AND FOG.

KYZ079-080-083-085-087-088-110-112-115-119-120-280600
...EASTERN KENTUCKY...

CITY           SKY/WX    TMP DP  RH WIND       PRES   REMARKS
JACKSON        CLOUDY    49  39  68 SW6       30.08S
LONDON         CLOUDY    48  42  80 W3        30.09F
SOMERSET*      DRIZZLE   45  45 100 CALM      30.12R
MONTICELLO*    FOG       48  46  93 CALM      30.13S VSB 1
MIDDLESBORO*   RAIN      47  43  87 CALM      30.11F
HARLAN APT*    CLOUDY    45  45 100 CALM      30.09F
BLACK MTN*       N/A     45  28  53 S3          N/A
PIKEVILLE APT* CLOUDY    48  39  71 CALM      30.07F
BIG SANDY*     CLOUDY    49  41  73 SW6       30.07S
MOREHEAD APT*  CLOUDY    52  41  66 SW9       30.08F
ASHLAND*       CLOUDY   N/A N/A N/A W5        30.03S
$$

KYZ035-036-041-042-044-050-067-078-099-280600
...CENTRAL KENTUCKY...

CITY           SKY/WX    TMP DP  RH WIND       PRES   REMARKS
MT STERLING*   CLOUDY    50  43  76 W8        30.08F
FLEMING/MASON* CLOUDY    45  45 100 W6        30.08F FOG
DANVILLE*      CLOUDY    46  45  93 SW7       30.08F
RICHMOND*      CLOUDY    48  43  81 SW9       30.08F
LEXINGTON      CLOUDY    47  46  97 SW13      30.07F FOG
FRANKFORT      CLOUDY    47  45  93 SW6       30.06F FOG
$$

KYZ091>093-OHZ055-061-077-WVZ005-015-034-035-042-280600
...SOUTHERN OHIO/WEST VIRGINIA...

CITY           SKY/WX    TMP DP  RH WIND       PRES   REMARKS
COVINGTON      LGT RAIN  47  44  90 SW5       30.07F
COLUMBUS       LGT RAIN  46  46 100 W8        30.03F FOG
DAYTON         LGT RAIN  42  40  92 NW10      30.06F FOG
WILMINGTON     LGT RAIN  46  44  93 W8        30.04F FOG
HUNTINGTON     CLOUDY    52  38  58 SW7       30.05R
CHARLESTON     CLOUDY    54  37  52 SW12      30.05F
PINEVILLE*     CLOUDY    47  45  91 MISG      30.11F
BECKLEY        CLOUDY    52  25  35 S6        30.07F
BLUEFIELD      CLOUDY    57  22  25 SW3       30.09F
$$

VAZ002-007-008-TNZ017-027-036-066-071-280600
...SOUTHWEST VIRGINIA/EAST TENNESSEE...

CITY           SKY/WX    TMP DP  RH WIND       PRES   REMARKS
WISE*          CLOUDY    54  21  28 S9        30.09F
JONESVILLE*    CLOUDY    46  45  93 CALM      30.14F
ABINGDON*      CLOUDY    47  38  72 CALM      30.11F
BRISTOL        CLOUDY    46  40  79 CALM      30.11F
KNOXVILLE      CLOUDY    49  42  77 CALM      30.13F
OAK RIDGE      LGT RAIN  49  44  83 CALM      30.14F
CROSSVILLE     CLOUDY    51  46  83 S9        30.09F
NASHVILLE      LGT RAIN  50  48  93 CALM      30.10S FOG
$$

...KEY TO REMARKS...
VSB - VISIBILITY IN MILES
WCI - WIND CHILL INDEX
HX  - HEAT INDEX

$$


USA.gov is the U.S. government's official web portal to all federal, state and local government web resources and services.